sat.trackr.live / text

‹ back to catalog

FLOCK 4BE-9

NORAD 60514 · 2024-149AY

PAYLOAD ACTIVE UNKNOWN

§ Identity

Operator
Country
US
Launch date
2024-08-16
Launch site
AFWTR
Launch vehicle
Mass (kg)
RCS (m²)

Purposes: earth_obs

External: N2YO · Heavens-Above · Gunter

§ Orbital elements

Epoch: 2026-09-19T11:56:38.045184Z

Period
93.27 min
Inclination
97.3736°
Eccentricity
0.0001621
Mean motion
15.43980028 rev/d
Perigee alt
433.3 km
Apogee alt
435.5 km
Semi-major
6,812.5 km
B*
5.6991e-4
RAAN
347.8470°
Arg perigee
331.6555°
Mean anomaly
28.4604°
Rev number
11,685

§ Raw data

FLOCK 4BE-91 60514U 24149AY  26262.49766256  .00025922  00000+0  56991-3 0  99912 60514  97.3736 347.8470 0001621 331.6555  28.4604 15.43980028116859

JSON: /api/v1/satellites/60514 · /tle

For live sub-satellite position, see the globe view (requires WebGL).

§ Visibility from observer

Set your observer location to see the next 7 days of passes ≥ 10°. The values pass through the URL so the page stays shareable.

No JS? Fill the form by hand. The geolocation button needs JavaScript.